Starlink 11364

operational
NORAD ID: 61543 Int'l Des: 2024-184 Owner: SPXS Country: US Constellation: starlink
LEOCIRCULAR

Über Starlink 11364

Beschreibung wird geladen...

Live-Position

3D-Globus wird geladen...

Nächste Überflüge

Höhenverlauf

Altitude vs Time

uPlot chart will show altitude changes over time

Zweizeiliger Elementsatz

1 61543U 24184M 26036.08484261 .00000096 00000-0 56521-5 0 9997
2 61543 53.1598 37.1904 0000862 81.9179 278.1936 15.69701848 75295
Epoch: 5. Feb. 2026 • Age: 9 hours

Aktueller Status

Höhe 378.6 km
Geschwindigkeit 7.68 km/s
Subsatellitenpunkt -52.59°S, 20°E
Startdatum 15. Okt. 2024
Alter 1.3 years
Typ internet

Technische Details

Klassifizierung Payload
Masse 960.00 kg
Trockenmasse 910.00 kg
Gesamtmasse 960.00 kg
Länge 0.30 m
Durchmesser 4.10 m
Spannweite 29.00 m
Form Box + pan
Hersteller SPXS
Bus-Typ Starlink V2MD
Phasenstatus In Orbit
Besitzer/Staat SPXS/US

Große Konstellationen

Loading constellations...